Flag for Russia Weather past 2 weeks in Krasnodar, Russia

Now
46 °F

Sunny.


Feels Like: 46 °F
Forecast: 44 / 61 °F
Wind: 1 mph from North

Location: Krasnodar Airport

Current Time: Oct 20, 2014 at 1:47:31 PM

Latest Report: Oct 20, 2014 at 1:00 PM


Visibility: 10 mi

Pressure: 30.21 "Hg

Humidity: 71%

Dew point: 37 °F

Location of KrasnodarLocation

Historic Weather in Krasnodar — Graph

°F

Krasnodar temperature yesterday

Maximum temperature yesterday: 46 °F (at 12:00 AM)
Minimum temperature yesterday: 36 °F (at 11:30 PM)
Average temperature yesterday: 40 °F

Past Weeks' High & Low Weather Summary

 TemperatureHumidityPressure
High73 °F (Oct 13, 2:00 PM)100% (Oct 10, 5:30 AM)30.42 "Hg (Oct 10, 5:30 AM)
Low32 °F (Oct 20, 6:30 AM)41% (Oct 10, 5:00 PM)29.62 "Hg (Oct 18, 3:00 PM)
Average54 °F75%30.09 "Hg
* Reported Oct 5 12:00 Noon — Oct 20 12:30 PM, Krasnodar, Weather by CustomWeather, © 2014

Note: Actual official high and low records may vary slightly from our data, if they occured in-between our weather recording intervals... More about our weather records

Advertising

Krasnodar weather history for previous 24 hours

 ConditionsComfort  
Time TempWeatherWind HumidityBarometerVisibility
12:30 PM
Oct 20
45 °FSunny.3 mph71%30.21 "Hg10 mi
12:00 PM45 °FPassing clouds.6 mph71%30.24 "HgN/A
11:30 AM41 °FPartly sunny.3 mph76%30.24 "HgN/A
11:00 AM41 °FPartly sunny.3 mph76%30.24 "HgN/A
10:30 AM39 °FPartly sunny.3 mph81%30.24 "HgN/A
10:00 AM39 °FPartly sunny.1 mph81%30.24 "HgN/A
9:30 AM37 °FPartly sunny.1 mph87%30.27 "HgN/A
9:00 AM36 °FPartly sunny.3 mph87%30.27 "Hg6 mi
7:00 AM32 °FPassing clouds.3 mph93%30.27 "HgN/A
6:30 AM32 °FPassing clouds.6 mph93%30.30 "HgN/A
6:00 AM34 °FPassing clouds.3 mph87%30.30 "HgN/A
5:30 AM36 °FPassing clouds.6 mph81%30.30 "HgN/A
5:00 AM34 °FPassing clouds.1 mph87%30.30 "HgN/A
4:30 AM34 °FPassing clouds.3 mph87%30.30 "HgN/A
4:00 AM36 °FPassing clouds.3 mph81%30.30 "HgN/A
3:30 AM36 °FPassing clouds.3 mph81%30.30 "HgN/A
3:00 AM36 °FPassing clouds.3 mph81%30.33 "HgN/A
2:30 AM36 °FPassing clouds.3 mph81%30.33 "HgN/A
2:00 AM36 °FPassing clouds.3 mph81%30.33 "HgN/A
1:30 AM36 °FPassing clouds.3 mph81%30.33 "HgN/A
1:00 AM36 °FPassing clouds.3 mph81%30.33 "HgN/A
12:30 AM34 °FPassing clouds.6 mph87%30.33 "HgN/A
12:00 AM36 °FPassing clouds.6 mph81%30.33 "HgN/A
11:30 PM
Oct 19
36 °FPassing clouds.6 mph81%30.33 "HgN/A
11:00 PM37 °FPassing clouds.6 mph75%30.33 "HgN/A
10:30 PM37 °FPassing clouds.6 mph75%30.33 "HgN/A
10:00 PM37 °FPassing clouds.8 mph75%30.33 "HgN/A
9:30 PM37 °FPassing clouds.6 mph75%30.33 "HgN/A
9:00 PM37 °FPassing clouds.6 mph81%30.33 "HgN/A
8:30 PM39 °FPassing clouds.6 mph75%30.33 "HgN/A
8:00 PM39 °FPassing clouds.6 mph75%30.33 "HgN/A
7:30 PM39 °FPartly sunny.6 mph70%30.30 "HgN/A
7:00 PM39 °FPartly sunny.8 mph75%30.30 "HgN/A
6:30 PM39 °FPartly sunny.8 mph75%30.30 "HgN/A
6:00 PM39 °FPartly sunny.6 mph75%30.27 "HgN/A
5:30 PM39 °FPartly sunny.6 mph75%30.27 "HgN/A
5:00 PM39 °FPartly sunny.8 mph75%30.27 "HgN/A
4:30 PM39 °FPartly sunny.10 mph75%30.24 "HgN/A
4:00 PM41 °FPartly sunny.10 mph70%30.24 "HgN/A
3:30 PM41 °FPartly sunny.13 mph66%30.24 "HgN/A
3:00 PM41 °FPartly sunny.10 mph70%30.24 "HgN/A
2:30 PM41 °FPartly sunny.13 mph70%30.21 "HgN/A
2:00 PM41 °FPartly sunny.10 mph66%30.21 "HgN/A
1:30 PM41 °FPartly sunny.13 mph70%30.21 "HgN/A
1:00 PM41 °FBroken clouds.13 mph70%30.21 "HgN/A
Weather by CustomWeather, © 2014

See weather overviewHow to use our weather pages